Location: Saint-Palais-sur-Mer
(45.6429°N, 1.0859°W)
Time: 09:29:37
(UTC+02:00)

TIGRISAT - Pass Details

Date: 01 May 2024
Orbit: 594 x 672 km, 97.7° (Epoch: 21 May)

Event Time Altitude Azimuth Distance (km) Brightness Sun altitude
Rises 04:49:47 0° 127° (SE) 2,887 ? -18.3°
Reaches altitude 10° 04:52:27 10° 111° (ESE) 1,972 ? -17.9°
Maximum altitude 04:55:31 20° 64° (ENE) 1,436 ? -17.6°
Drops below altitude 10° 04:58:34 10° 18° (NNE) 1,956 ? -17.2°
Sets 05:01:12 0° 2° (N) 2,856 ? -16.9°
